Location: Ebenezer
(18.2167°N, 63.0667°W)
Time: 15:16:59
(UTC+00:00)

SWIFT - Pass Details

Date: 26 January 2020
Orbit: 545 x 560 km, 20.6° (Epoch: 16 February)

Event Time Altitude Azimuth Distance (km) Brightness Sun altitude
Rises 23:01:10 0° 280° (W) 2,688 7.1 -14.0°
Reaches altitude 10° 23:03:27 10° 282° (WNW) 1,798 6.0 -14.5°
Maximum altitude 23:07:37 71° 6° (N) 574 2.3 -15.5°
Enters shadow 23:09:34 30° 84° (E) 981 3.0 -15.9°
